STARLINK-11358 [DTC] (62558 NORAD) Tracking and Keplerian Element Data

This shows tracking and keplerian element data for the satellite.

Feedback or suggestion? Click here.




ElementValue
Catalog62558
NameSTARLINK-11358 [DTC]
Epoch Orbit493
Epoch Day34.67306732
Epoch Year2025
RAAN28.971
Inclination42.999
Eccentricity0.0001458
Argument of Perigee265.0049
Mean Anonmoly95.0654
Mean Motion15.77868447
Decay Rate5.105E-05
L11 62558U 25006E 25034.67306732 .00005105 00000+0 32164-4 0 9997
L22 62558 42.9990 28.9710 0001458 265.0049 95.0654 15.77868447 4934



Live tracking and technical data element details for STARLINK-11358 [DTC] (NORAD 62558). STARLINK-11358 [DTC] can be tracked NOW for your location showing map with azimuth and elevation plus other details from your city location.







IsCatalogInMostPopularTable: catalog: 62558, numindb: 13
Update: records affected: 1



GetName: 62558 STARLINK-11358 [DTC]

Hit Count: updated at: Sat, 24 May 2025 17:10:50 GMT